Location: Casteau
(50.5142°N, 4.0161°E)
Time: 02:29:21
(UTC+00:00)

Explorer 11/Cluster Stage 4 - Pass Details

Date: 01 August 2021
Orbit: 467 x 1257 km, 28.8° (Epoch: 18 September)

Event Time Altitude Azimuth Distance (km) Brightness Sun altitude
Rises 11:39:10 0° 239° (WSW) 4,194 10.5 57.3°
Reaches altitude 10° 11:44:20 10° 213° (SSW) 3,179 10.3 57.3°
Maximum altitude 11:47:16 12° 191° (SSW) 2,946 10.3 57.4°
Drops below altitude 10° 11:50:07 10° 170° (S) 3,056 10.3 57.4°
Sets 11:54:50 0° 142° (SE) 3,859 10.5 57.4°
